This is the latest recevied weather packets stored in our database for station/object K4AXV-13. If no packets are shown the sender has not sent any weather packets the latest 10 day(s).
| Time | Temp. | Humidity | Pressure | Rain* | Wind** | Luminosity | Snow |
|---|---|---|---|---|---|---|---|
| 1778116026 | 22.78° C | - | - | 0 mm | 0.45 m/s, 322° | - | - |
| 1778115727 | 22.78° C | - | - | 0 mm | 1.34 m/s, 354° | - | - |
| 1778115423 | 22.78° C | - | - | 0 mm | 0 m/s | - | - |
| 1778115124 | 22.78° C | - | - | 0 mm | 0.45 m/s, 274° | - | - |
| 1778114821 | 22.78° C | - | - | 0 mm | 0 m/s | - | - |
| 1778114219 | 22.78° C | - | - | 0 mm | 0.45 m/s, 256° | - | - |
| 1778113920 | 23.33° C | - | - | 0 mm | 0.45 m/s, 352° | - | - |
| 1778113617 | 23.33° C | - | - | 0 mm | 0 m/s | - | - |
| 1778113318 | 23.33° C | - | - | 0 mm | 0.45 m/s, 307° | - | - |
| 1778113014 | 23.33° C | - | - | 0 mm | 2.24 m/s, 277° | - | - |
| 1778112414 | 23.89° C | - | - | 0 mm | 0.45 m/s, 349° | - | - |
| 1778112115 | 23.89° C | - | - | 0 mm | 1.79 m/s, 333° | - | - |
| 1778111813 | 23.89° C | - | - | 0 mm | 0.45 m/s, 357° | - | - |
| 1778111514 | 24.44° C | - | - | 0 mm | 0.89 m/s, 325° | - | - |
| 1778111210 | 24.44° C | - | - | 0 mm | 0.45 m/s, 301° | - | - |
| 1778110911 | 24.44° C | - | - | 0 mm | 0.45 m/s, 329° | - | - |
| 1778110607 | 25° C | - | - | 0 mm | 0 m/s | - | - |
| 1778110308 | 24.44° C | - | - | 0 mm | 1.34 m/s, 307° | - | - |
| 1778110005 | 24.44° C | - | - | 0 mm | 0 m/s | - | - |
| 1778109403 | 25° C | - | - | 0 mm | 0.45 m/s, 318° | - | - |
| 1778109103 | 25° C | - | - | 0 mm | 0 m/s | - | - |
| 1778108944 | 25.56° C | - | - | 0 mm | 0.45 m/s, 350° | - | - |
| 1778108801 | 25.56° C | - | - | 0 mm | 0.45 m/s, 350° | - | - |
| 1778108502 | 25.56° C | - | - | 0 mm | 0.45 m/s, 21° | - | - |
| 1778108198 | 26.11° C | - | - | 0 mm | 1.34 m/s, 307° | - | - |
* Rain latest hour (hover to see other rain measurements)
** Current wind speed in m/s (hover to see current wind gust speed)